Time,TemperatureF,DewpointF,PressureIn,WindDirection,WindDirectionDegrees,WindSpeedMPH,WindSpeedGustMPH,Humidity,HourlyPrecipIn,Conditions,Clouds,dailyrainin,SoftwareType,DateUTC
2013-11-07 00:02:00,64.6,61.9,30.09,ESE,118,0.0,0.0,91,0.00,,,0.00,meteohub,2013-11-07 06:02:00,
2013-11-07 00:07:00,64.6,61.9,30.09,ESE,118,0.0,0.0,91,0.00,,,0.00,meteohub,2013-11-07 06:07:00,
2013-11-07 00:12:00,64.4,61.7,30.08,ESE,118,0.0,0.0,91,0.00,,,0.00,meteohub,2013-11-07 06:12:00,
2013-11-07 00:17:00,64.2,61.9,30.08,ESE,118,0.0,0.0,92,0.00,,,0.00,meteohub,2013-11-07 06:17:00,
2013-11-07 00:22:00,64.0,61.7,30.08,ESE,118,0.0,0.0,92,0.00,,,0.00,meteohub,2013-11-07 06:22:00,
2013-11-07 00:27:00,64.0,61.7,30.08,ESE,118,0.0,0.0,92,0.00,,,0.00,meteohub,2013-11-07 06:27:00,
2013-11-07 00:32:00,63.9,61.5,30.08,ESE,118,0.0,0.0,92,0.00,,,0.00,meteohub,2013-11-07 06:32:00,
2013-11-07 00:38:00,63.7,61.3,30.08,ESE,118,0.0,0.0,92,0.00,,,0.00,meteohub,2013-11-07 06:38:00,
2013-11-07 00:43:00,63.5,61.2,30.08,ESE,118,0.0,0.0,92,0.00,,,0.00,meteohub,2013-11-07 06:43:00,
2013-11-07 00:48:00,63.5,61.5,30.08,ESE,118,0.0,0.0,93,0.00,,,0.00,meteohub,2013-11-07 06:48:00,
2013-11-07 00:53:00,63.3,61.3,30.07,ESE,118,0.0,0.0,93,0.00,,,0.00,meteohub,2013-11-07 06:53:00,
2013-11-07 00:58:00,63.3,61.3,30.08,ESE,118,0.0,0.0,93,0.00,,,0.00,meteohub,2013-11-07 06:58:00,
2013-11-07 01:03:00,63.1,61.2,30.08,ESE,118,0.0,0.0,93,0.00,,,0.00,meteohub,2013-11-07 07:03:00,
2013-11-07 01:08:00,63.0,61.0,30.08,ESE,118,0.0,0.0,93,0.00,,,0.00,meteohub,2013-11-07 07:08:00,
2013-11-07 01:13:00,63.0,61.0,30.08,ESE,118,0.0,0.0,93,0.00,,,0.00,meteohub,2013-11-07 07:13:00,
2013-11-07 01:18:00,63.0,61.0,30.08,ESE,118,0.0,0.0,93,0.00,,,0.00,meteohub,2013-11-07 07:18:00,
2013-11-07 01:24:00,62.8,60.8,30.08,ESE,118,0.0,0.0,93,0.00,,,0.00,meteohub,2013-11-07 07:24:00,
2013-11-07 01:29:00,62.8,60.8,30.07,ESE,118,0.0,0.0,93,0.00,,,0.00,meteohub,2013-11-07 07:29:00,
2013-11-07 01:34:00,62.6,60.6,30.07,ESE,118,0.0,0.0,93,0.00,,,0.00,meteohub,2013-11-07 07:34:00,
2013-11-07 01:39:00,62.4,60.4,30.07,ESE,118,0.0,0.0,93,0.00,,,0.00,meteohub,2013-11-07 07:39:00,
2013-11-07 01:44:00,62.4,60.6,30.07,ESE,118,0.0,0.0,94,0.00,,,0.00,meteohub,2013-11-07 07:44:00,
2013-11-07 01:49:00,62.4,60.6,30.07,ESE,118,0.0,0.0,94,0.00,,,0.00,meteohub,2013-11-07 07:49:00,
2013-11-07 01:54:00,62.2,60.4,30.06,ESE,118,0.0,0.0,94,0.00,,,0.00,meteohub,2013-11-07 07:54:00,
2013-11-07 01:59:00,62.2,60.4,30.07,ESE,118,0.0,0.0,94,0.00,,,0.00,meteohub,2013-11-07 07:59:00,
2013-11-07 02:04:00,62.2,60.4,30.07,ESE,118,0.0,0.0,94,0.00,,,0.00,meteohub,2013-11-07 08:04:00,
2013-11-07 02:10:00,62.1,60.3,30.06,ESE,118,0.0,0.0,94,0.00,,,0.00,meteohub,2013-11-07 08:10:00,
2013-11-07 02:15:00,62.1,60.3,30.06,ESE,118,0.0,0.0,94,0.00,,,0.00,meteohub,2013-11-07 08:15:00,
2013-11-07 02:20:00,62.1,60.3,30.06,ESE,118,0.0,0.0,94,0.00,,,0.00,meteohub,2013-11-07 08:20:00,
2013-11-07 02:25:00,61.9,60.1,30.06,ESE,118,0.0,1.0,94,0.00,,,0.00,meteohub,2013-11-07 08:25:00,
2013-11-07 02:30:00,61.9,60.1,30.06,ESE,118,0.0,1.0,94,0.00,,,0.00,meteohub,2013-11-07 08:30:00,
2013-11-07 02:35:00,61.7,59.9,30.06,ESE,118,0.0,1.0,94,0.00,,,0.00,meteohub,2013-11-07 08:35:00,
2013-11-07 02:40:00,61.7,59.9,30.06,ESE,118,0.0,1.0,94,0.00,,,0.00,meteohub,2013-11-07 08:40:00,
2013-11-07 02:45:00,62.1,60.6,30.06,ESE,118,1.0,1.0,95,0.00,,,0.00,meteohub,2013-11-07 08:45:00,
2013-11-07 02:51:00,62.2,60.8,30.06,ESE,118,0.0,2.0,95,0.00,,,0.00,meteohub,2013-11-07 08:51:00,
2013-11-07 02:56:00,62.2,60.4,30.06,ESE,118,0.0,2.0,94,0.00,,,0.00,meteohub,2013-11-07 08:56:00,
2013-11-07 03:01:00,62.1,60.3,30.06,ESE,118,0.0,2.0,94,0.00,,,0.00,meteohub,2013-11-07 09:01:00,
2013-11-07 03:06:00,62.1,60.3,30.06,ESE,118,0.0,0.0,94,0.00,,,0.00,meteohub,2013-11-07 09:06:00,
2013-11-07 03:11:00,61.9,60.1,30.06,ESE,118,0.0,0.0,94,0.00,,,0.00,meteohub,2013-11-07 09:11:00,
2013-11-07 03:16:00,61.5,59.7,30.06,ESE,118,0.0,0.0,94,0.00,,,0.00,meteohub,2013-11-07 09:16:00,
2013-11-07 03:21:00,61.5,59.7,30.06,ESE,118,0.0,0.0,94,0.00,,,0.00,meteohub,2013-11-07 09:21:00,
2013-11-07 03:26:00,61.3,59.5,30.05,ESE,118,0.0,0.0,94,0.00,,,0.00,meteohub,2013-11-07 09:26:00,
2013-11-07 03:31:00,61.3,59.5,30.06,ESE,118,0.0,0.0,94,0.00,,,0.00,meteohub,2013-11-07 09:31:00,
2013-11-07 03:36:00,61.3,59.5,30.06,ESE,118,0.0,0.0,94,0.00,,,0.00,meteohub,2013-11-07 09:36:00,
2013-11-07 03:42:00,61.2,59.4,30.06,ESE,118,0.0,0.0,94,0.00,,,0.00,meteohub,2013-11-07 09:42:00,
2013-11-07 03:47:00,61.0,59.2,30.06,ESE,118,0.0,0.0,94,0.00,,,0.00,meteohub,2013-11-07 09:47:00,
2013-11-07 03:52:00,61.0,59.2,30.06,ESE,118,0.0,1.0,94,0.00,,,0.00,meteohub,2013-11-07 09:52:00,
2013-11-07 03:57:00,61.0,59.2,30.05,ESE,118,0.0,1.0,94,0.00,,,0.00,meteohub,2013-11-07 09:57:00,
2013-11-07 04:02:00,61.0,59.2,30.05,ESE,118,0.0,1.0,94,0.00,,,0.00,meteohub,2013-11-07 10:02:00,
2013-11-07 04:07:00,61.0,59.5,30.05,ESE,118,0.0,0.0,95,0.00,,,0.00,meteohub,2013-11-07 10:07:00,
2013-11-07 04:12:00,61.0,59.5,30.05,ESE,118,0.0,0.0,95,0.00,,,0.00,meteohub,2013-11-07 10:12:00,
2013-11-07 04:17:00,61.0,59.5,30.05,ESE,118,0.0,0.0,95,0.00,,,0.00,meteohub,2013-11-07 10:17:00,
2013-11-07 04:22:00,61.0,59.5,30.05,ESE,118,0.0,1.0,95,0.00,,,0.00,meteohub,2013-11-07 10:22:00,
2013-11-07 04:27:00,61.0,59.5,30.05,ESE,118,0.0,1.0,95,0.00,,,0.00,meteohub,2013-11-07 10:27:00,
2013-11-07 04:32:00,61.0,59.5,30.05,ESE,118,0.0,1.0,95,0.00,,,0.00,meteohub,2013-11-07 10:32:00,
2013-11-07 04:37:00,61.0,59.5,30.05,ESE,118,0.0,1.0,95,0.00,,,0.00,meteohub,2013-11-07 10:37:00,
2013-11-07 04:42:00,61.2,59.7,30.05,ESE,118,0.0,1.0,95,0.00,,,0.00,meteohub,2013-11-07 10:42:00,
2013-11-07 04:47:00,61.2,59.7,30.05,ESE,118,0.0,1.0,95,0.00,,,0.00,meteohub,2013-11-07 10:47:00,
2013-11-07 04:52:00,61.2,59.7,30.05,ESE,118,0.0,1.0,95,0.00,,,0.00,meteohub,2013-11-07 10:52:00,
2013-11-07 04:57:00,61.2,59.7,30.05,ESE,118,0.0,1.0,95,0.00,,,0.00,meteohub,2013-11-07 10:57:00,
2013-11-07 05:02:00,61.2,59.7,30.06,ESE,118,0.0,0.0,95,0.00,,,0.00,meteohub,2013-11-07 11:02:00,
2013-11-07 05:07:00,61.2,59.7,30.06,ESE,118,0.0,0.0,95,0.00,,,0.00,meteohub,2013-11-07 11:07:00,
2013-11-07 05:12:00,61.2,59.7,30.06,ESE,118,0.0,0.0,95,0.00,,,0.00,meteohub,2013-11-07 11:12:00,
2013-11-07 05:17:00,61.3,59.9,30.06,ESE,118,0.0,0.0,95,0.00,,,0.00,meteohub,2013-11-07 11:17:00,
2013-11-07 05:22:00,61.3,59.9,30.06,ESE,118,0.0,0.0,95,0.00,,,0.00,meteohub,2013-11-07 11:22:00,
2013-11-07 05:27:00,61.3,59.9,30.06,ESE,118,0.0,0.0,95,0.00,,,0.00,meteohub,2013-11-07 11:27:00,
2013-11-07 05:32:00,61.3,59.9,30.06,ESE,118,0.0,1.0,95,0.00,,,0.00,meteohub,2013-11-07 11:32:00,
2013-11-07 05:35:00,61.5,60.1,30.06,ESE,118,0.0,1.0,95,0.00,,,0.00,meteohub,2013-11-07 11:35:00,
2013-11-07 05:40:00,61.5,60.1,30.06,ESE,118,0.0,1.0,95,0.00,,,0.00,meteohub,2013-11-07 11:40:00,
2013-11-07 05:45:00,61.5,60.1,30.06,ESE,118,0.0,1.0,95,0.00,,,0.00,meteohub,2013-11-07 11:45:00,
2013-11-07 05:50:00,61.5,60.1,30.06,ESE,118,0.0,1.0,95,0.00,,,0.00,meteohub,2013-11-07 11:50:00,
2013-11-07 05:56:00,61.7,60.3,30.06,ESE,118,0.0,1.0,95,0.00,,,0.00,meteohub,2013-11-07 11:56:00,
2013-11-07 06:01:00,61.7,60.3,30.06,ESE,118,0.0,0.0,95,0.00,,,0.00,meteohub,2013-11-07 12:01:00,
2013-11-07 06:06:00,61.7,60.3,30.06,ESE,118,0.0,0.0,95,0.00,,,0.00,meteohub,2013-11-07 12:06:00,
2013-11-07 06:11:00,61.7,60.3,30.06,ESE,118,0.0,0.0,95,0.00,,,0.00,meteohub,2013-11-07 12:11:00,
2013-11-07 06:16:00,61.7,60.3,30.06,ESE,118,0.0,0.0,95,0.00,,,0.00,meteohub,2013-11-07 12:16:00,
2013-11-07 06:21:00,61.9,60.4,30.06,ESE,118,0.0,0.0,95,0.00,,,0.00,meteohub,2013-11-07 12:21:00,
2013-11-07 06:26:00,61.9,60.4,30.07,ESE,118,0.0,0.0,95,0.00,,,0.00,meteohub,2013-11-07 12:26:00,
2013-11-07 06:31:00,62.1,60.6,30.07,ESE,118,0.0,0.0,95,0.00,,,0.00,meteohub,2013-11-07 12:31:00,
2013-11-07 06:37:00,62.2,60.8,30.07,ESE,118,0.0,0.0,95,0.00,,,0.00,meteohub,2013-11-07 12:37:00,
2013-11-07 06:42:00,62.2,60.8,30.07,ESE,118,0.0,1.0,95,0.00,,,0.00,meteohub,2013-11-07 12:42:00,
2013-11-07 06:47:00,62.4,61.0,30.07,ESE,118,0.0,1.0,95,0.00,,,0.00,meteohub,2013-11-07 12:47:00,
2013-11-07 06:52:00,62.8,61.3,30.07,ESE,118,0.0,1.0,95,0.00,,,0.00,meteohub,2013-11-07 12:52:00,
2013-11-07 06:57:00,63.0,61.5,30.07,ESE,118,0.0,2.0,95,0.00,,,0.00,meteohub,2013-11-07 12:57:00,
2013-11-07 07:02:00,63.1,61.7,30.07,ESE,118,1.0,2.0,95,0.00,,,0.00,meteohub,2013-11-07 13:02:00,
2013-11-07 07:07:00,63.5,62.1,30.07,ESE,118,0.0,2.0,95,0.00,,,0.00,meteohub,2013-11-07 13:07:00,
2013-11-07 07:12:00,63.9,62.4,30.08,ESE,118,0.0,2.0,95,0.00,,,0.00,meteohub,2013-11-07 13:12:00,
2013-11-07 07:17:00,64.0,62.2,30.08,ESE,118,0.0,1.0,94,0.00,,,0.00,meteohub,2013-11-07 13:17:00,
2013-11-07 07:22:00,64.2,62.8,30.08,ESE,118,0.0,1.0,95,0.00,,,0.00,meteohub,2013-11-07 13:22:00,
2013-11-07 07:27:00,64.2,62.4,30.09,ESE,118,0.0,1.0,94,0.00,,,0.00,meteohub,2013-11-07 13:27:00,
2013-11-07 07:32:00,64.4,62.6,30.09,SSW,206,0.0,1.0,94,0.00,,,0.00,meteohub,2013-11-07 13:32:00,
2013-11-07 07:37:00,64.4,62.6,30.10,West,266,0.0,2.0,94,0.00,,,0.00,meteohub,2013-11-07 13:37:00,
2013-11-07 07:42:00,64.6,62.8,30.10,WNW,291,1.0,4.0,94,0.00,,,0.00,meteohub,2013-11-07 13:42:00,
2013-11-07 07:47:00,64.4,62.6,30.10,WNW,296,0.0,4.0,94,0.00,,,0.00,meteohub,2013-11-07 13:47:00,
2013-11-07 07:52:00,64.4,62.6,30.10,WNW,291,0.0,5.0,94,0.00,,,0.00,meteohub,2013-11-07 13:52:00,
2013-11-07 07:57:00,64.4,62.6,30.10,WNW,291,0.0,5.0,94,0.00,,,0.00,meteohub,2013-11-07 13:57:00,
2013-11-07 08:02:00,64.4,62.6,30.11,WNW,290,1.0,4.0,94,0.00,,,0.00,meteohub,2013-11-07 14:02:00,
2013-11-07 08:07:00,64.4,62.6,30.11,West,281,0.0,4.0,94,0.00,,,0.00,meteohub,2013-11-07 14:07:00,
2013-11-07 08:12:00,64.4,62.6,30.11,West,281,1.0,4.0,94,0.00,,,0.00,meteohub,2013-11-07 14:12:00,
2013-11-07 08:17:00,64.4,62.6,30.12,West,281,1.0,4.0,94,0.00,,,0.00,meteohub,2013-11-07 14:17:00,
2013-11-07 08:22:00,64.4,62.6,30.12,West,281,0.0,3.0,94,0.00,,,0.00,meteohub,2013-11-07 14:22:00,
2013-11-07 08:27:00,64.6,63.1,30.12,WNW,282,1.0,3.0,95,0.00,,,0.00,meteohub,2013-11-07 14:27:00,
2013-11-07 08:32:00,64.6,63.1,30.12,WSW,237,0.0,3.0,95,0.00,,,0.00,meteohub,2013-11-07 14:32:00,
2013-11-07 08:37:00,64.6,63.1,30.12,WSW,245,0.0,5.0,95,0.00,,,0.00,meteohub,2013-11-07 14:37:00,
2013-11-07 08:42:00,64.6,63.1,30.12,WSW,244,2.0,5.0,95,0.00,,,0.00,meteohub,2013-11-07 14:42:00,
2013-11-07 08:47:00,64.6,63.1,30.12,West,271,0.0,5.0,95,0.00,,,0.00,meteohub,2013-11-07 14:47:00,
2013-11-07 08:52:00,64.6,63.1,30.12,WNW,285,1.0,5.0,95,0.00,,,0.00,meteohub,2013-11-07 14:52:00,
2013-11-07 08:57:00,64.4,63.0,30.13,WNW,290,3.0,5.0,95,0.00,,,0.00,meteohub,2013-11-07 14:57:00,
2013-11-07 09:02:00,64.4,63.0,30.13,SSW,209,0.0,4.0,95,0.00,,,0.00,meteohub,2013-11-07 15:02:00,
2013-11-07 09:07:00,64.2,62.8,30.13,NW,316,0.0,8.0,95,0.00,,,0.00,meteohub,2013-11-07 15:07:00,
2013-11-07 09:12:00,64.2,62.8,30.13,West,268,1.0,8.0,95,0.00,,,0.00,meteohub,2013-11-07 15:12:00,
2013-11-07 09:17:00,64.2,62.8,30.14,West,271,2.0,8.0,95,0.00,,,0.00,meteohub,2013-11-07 15:17:00,
2013-11-07 09:22:00,64.2,62.8,30.13,North,354,2.0,6.0,95,0.00,,,0.00,meteohub,2013-11-07 15:22:00,
2013-11-07 09:27:00,64.2,62.8,30.13,ENE,69,1.0,6.0,95,0.00,,,0.00,meteohub,2013-11-07 15:27:00,
2013-11-07 09:32:00,64.2,62.8,30.13,West,277,2.0,5.0,95,0.00,,,0.00,meteohub,2013-11-07 15:32:00,
2013-11-07 09:37:00,64.4,63.0,30.14,WNW,285,1.0,6.0,95,0.00,,,0.00,meteohub,2013-11-07 15:37:00,
2013-11-07 09:42:00,64.4,63.0,30.14,ENE,63,0.0,7.0,95,0.00,,,0.00,meteohub,2013-11-07 15:42:00,
2013-11-07 09:47:00,64.6,63.1,30.13,NE,37,0.0,7.0,95,0.00,,,0.00,meteohub,2013-11-07 15:47:00,
2013-11-07 09:52:00,64.8,63.3,30.13,NNE,21,2.0,7.0,95,0.00,,,0.00,meteohub,2013-11-07 15:52:00,
2013-11-07 09:57:00,64.9,63.5,30.13,NW,315,0.0,6.0,95,0.00,,,0.00,meteohub,2013-11-07 15:57:00,
2013-11-07 10:02:00,64.9,63.5,30.14,West,264,0.0,6.0,95,0.00,,,0.00,meteohub,2013-11-07 16:02:00,
2013-11-07 10:07:00,64.9,63.5,30.14,WNW,295,0.0,6.0,95,0.00,,,0.00,meteohub,2013-11-07 16:07:00,
2013-11-07 10:12:00,64.9,63.5,30.14,WNW,300,0.0,4.0,95,0.00,,,0.00,meteohub,2013-11-07 16:12:00,
2013-11-07 10:17:00,64.9,63.5,30.14,South,184,0.0,5.0,95,0.00,,,0.00,meteohub,2013-11-07 16:17:00,
2013-11-07 10:22:00,64.9,63.1,30.14,West,274,2.0,5.0,94,0.00,,,0.00,meteohub,2013-11-07 16:22:00,
2013-11-07 10:27:00,64.8,63.0,30.14,West,270,0.0,6.0,94,0.00,,,0.00,meteohub,2013-11-07 16:27:00,
2013-11-07 10:32:00,64.8,63.0,30.13,SSE,160,1.0,6.0,94,0.00,,,0.00,meteohub,2013-11-07 16:32:00,
2013-11-07 10:37:00,64.9,63.1,30.14,SSW,213,2.0,6.0,94,0.00,,,0.00,meteohub,2013-11-07 16:37:00,
2013-11-07 10:42:00,64.9,63.1,30.14,West,265,3.0,5.0,94,0.00,,,0.00,meteohub,2013-11-07 16:42:00,
2013-11-07 10:47:00,64.8,63.0,30.14,WNW,285,2.0,6.0,94,0.00,,,0.00,meteohub,2013-11-07 16:47:00,
2013-11-07 10:52:00,64.8,63.0,30.14,NNW,339,1.0,6.0,94,0.00,,,0.00,meteohub,2013-11-07 16:52:00,
2013-11-07 10:57:00,64.8,62.6,30.13,NW,324,2.0,6.0,93,0.00,,,0.00,meteohub,2013-11-07 16:57:00,
2013-11-07 11:02:00,64.6,62.2,30.14,SSW,211,1.0,6.0,92,0.00,,,0.00,meteohub,2013-11-07 17:02:00,
2013-11-07 11:07:00,64.2,61.9,30.13,SE,139,0.0,5.0,92,0.00,,,0.00,meteohub,2013-11-07 17:07:00,
2013-11-07 11:12:00,64.2,61.9,30.13,WNW,288,0.0,5.0,92,0.00,,,0.00,meteohub,2013-11-07 17:12:00,
2013-11-07 11:17:00,64.2,61.9,30.13,North,10,2.0,5.0,92,0.00,,,0.00,meteohub,2013-11-07 17:17:00,
2013-11-07 11:22:00,64.0,61.3,30.13,WNW,295,3.0,8.0,91,0.00,,,0.00,meteohub,2013-11-07 17:22:00,
2013-11-07 11:27:00,63.7,61.0,30.13,NW,316,1.0,9.0,91,0.00,,,0.00,meteohub,2013-11-07 17:27:00,
2013-11-07 11:32:00,63.3,61.0,30.13,WSW,256,2.0,9.0,92,0.00,,,0.00,meteohub,2013-11-07 17:32:00,
2013-11-07 11:37:00,63.1,60.8,30.13,WNW,289,4.0,8.0,92,0.00,,,0.00,meteohub,2013-11-07 17:37:00,
2013-11-07 11:42:00,63.1,60.8,30.13,West,263,4.0,9.0,92,0.00,,,0.00,meteohub,2013-11-07 17:42:00,
2013-11-07 11:47:00,63.0,60.3,30.13,NW,311,0.0,9.0,91,0.00,,,0.00,meteohub,2013-11-07 17:47:00,
2013-11-07 11:52:00,63.0,60.3,30.13,WNW,290,4.0,9.0,91,0.00,,,0.00,meteohub,2013-11-07 17:52:00,
2013-11-07 11:57:00,62.4,59.7,30.13,NNW,331,1.0,8.0,91,0.00,,,0.00,meteohub,2013-11-07 17:57:00,
2013-11-07 11:58:00,62.2,59.5,30.13,ENE,66,2.0,8.0,91,0.00,,,0.00,meteohub,2013-11-07 17:58:00,
2013-11-07 12:03:00,61.9,59.2,30.13,WNW,291,0.0,8.0,91,0.00,,,0.00,meteohub,2013-11-07 18:03:00,
2013-11-07 12:08:00,61.3,59.0,30.13,NW,311,1.0,8.0,92,0.00,,,0.00,meteohub,2013-11-07 18:08:00,
2013-11-07 12:13:00,61.0,58.6,30.13,East,89,1.0,10.0,92,0.00,,,0.00,meteohub,2013-11-07 18:13:00,
2013-11-07 12:19:00,60.4,57.7,30.13,West,279,5.0,10.0,91,0.00,,,0.00,meteohub,2013-11-07 18:19:00,
2013-11-07 12:24:00,60.1,57.7,30.13,WSW,258,2.0,13.0,92,0.00,,,0.00,meteohub,2013-11-07 18:24:00,
2013-11-07 12:29:00,59.9,57.6,30.13,SSW,206,1.0,13.0,92,0.00,,,0.00,meteohub,2013-11-07 18:29:00,
2013-11-07 12:34:00,59.7,57.4,30.13,WNW,288,0.0,13.0,92,0.00,,,0.00,meteohub,2013-11-07 18:34:00,
2013-11-07 12:39:00,59.5,57.2,30.13,NNW,343,3.0,8.0,92,0.00,,,0.00,meteohub,2013-11-07 18:39:00,
2013-11-07 12:44:00,59.5,57.2,30.13,North,354,1.0,8.0,92,0.00,,,0.00,meteohub,2013-11-07 18:44:00,
2013-11-07 12:49:00,59.2,56.5,30.13,NW,312,0.0,7.0,91,0.00,,,0.00,meteohub,2013-11-07 18:49:00,
2013-11-07 12:54:00,59.0,56.3,30.13,WNW,294,4.0,9.0,91,0.00,,,0.00,meteohub,2013-11-07 18:54:00,
2013-11-07 12:59:00,58.8,56.1,30.13,WNW,288,4.0,9.0,91,0.00,,,0.00,meteohub,2013-11-07 18:59:00,
2013-11-07 13:05:00,58.8,56.1,30.13,WSW,253,5.0,9.0,91,0.00,,,0.00,meteohub,2013-11-07 19:05:00,
2013-11-07 13:10:00,58.5,55.8,30.13,WSW,255,4.0,12.0,91,0.00,,,0.00,meteohub,2013-11-07 19:10:00,
2013-11-07 13:15:00,57.9,55.2,30.13,WSW,240,7.0,11.0,91,0.00,,,0.00,meteohub,2013-11-07 19:15:00,
2013-11-07 13:20:00,57.7,55.2,30.13,West,280,1.0,9.0,91,0.00,,,0.00,meteohub,2013-11-07 19:20:00,
2013-11-07 13:25:00,57.9,55.2,30.13,WSW,256,0.0,9.0,91,0.00,,,0.00,meteohub,2013-11-07 19:25:00,
2013-11-07 13:30:00,57.9,55.2,30.14,WSW,239,3.0,7.0,91,0.00,,,0.00,meteohub,2013-11-07 19:30:00,
2013-11-07 13:35:00,57.7,54.9,30.14,WNW,295,2.0,10.0,90,0.00,,,0.00,meteohub,2013-11-07 19:35:00,
2013-11-07 13:40:00,57.7,54.5,30.14,WNW,295,8.0,10.0,89,0.00,,,0.00,meteohub,2013-11-07 19:40:00,
2013-11-07 13:46:00,57.9,54.3,30.13,SE,138,1.0,10.0,88,0.00,,,0.00,meteohub,2013-11-07 19:46:00,
2013-11-07 13:51:00,58.6,54.1,30.13,WNW,285,4.0,15.0,85,0.00,,,0.00,meteohub,2013-11-07 19:51:00,
2013-11-07 13:56:00,58.8,54.0,30.13,NNW,348,1.0,15.0,84,0.00,,,0.00,meteohub,2013-11-07 19:56:00,
2013-11-07 14:01:00,58.8,53.6,30.13,West,260,1.0,15.0,83,0.00,,,0.00,meteohub,2013-11-07 20:01:00,
2013-11-07 14:06:00,59.5,54.3,30.13,NW,311,1.0,12.0,83,0.00,,,0.00,meteohub,2013-11-07 20:06:00,
2013-11-07 14:11:00,59.7,53.6,30.14,ENE,68,4.0,12.0,80,0.00,,,0.00,meteohub,2013-11-07 20:11:00,
2013-11-07 14:16:00,59.9,53.8,30.13,NNW,345,7.0,9.0,80,0.00,,,0.00,meteohub,2013-11-07 20:16:00,
2013-11-07 14:21:00,60.1,52.9,30.13,South,191,3.0,9.0,77,0.00,,,0.00,meteohub,2013-11-07 20:21:00,
2013-11-07 14:26:00,59.9,52.7,30.13,SSW,213,2.0,9.0,77,0.00,,,0.00,meteohub,2013-11-07 20:26:00,
2013-11-07 14:32:00,60.1,52.5,30.13,East,100,3.0,8.0,76,0.00,,,0.00,meteohub,2013-11-07 20:32:00,
2013-11-07 14:37:00,60.3,52.3,30.13,SSE,153,1.0,8.0,75,0.00,,,0.00,meteohub,2013-11-07 20:37:00,
2013-11-07 14:42:00,60.4,52.2,30.13,NE,50,1.0,6.0,74,0.00,,,0.00,meteohub,2013-11-07 20:42:00,
2013-11-07 14:47:00,60.4,51.8,30.12,NNW,345,1.0,7.0,73,0.00,,,0.00,meteohub,2013-11-07 20:47:00,
2013-11-07 14:52:00,60.4,51.8,30.13,WNW,295,3.0,7.0,73,0.00,,,0.00,meteohub,2013-11-07 20:52:00,
2013-11-07 14:57:00,60.8,52.9,30.13,WSW,247,1.0,6.0,75,0.00,,,0.00,meteohub,2013-11-07 20:57:00,
2013-11-07 15:02:00,61.0,52.3,30.12,WNW,303,2.0,6.0,73,0.00,,,0.00,meteohub,2013-11-07 21:02:00,
2013-11-07 15:07:00,60.6,52.3,30.13,WNW,289,4.0,9.0,74,0.00,,,0.00,meteohub,2013-11-07 21:07:00,
2013-11-07 15:12:00,60.6,52.0,30.13,SW,232,1.0,9.0,73,0.00,,,0.00,meteohub,2013-11-07 21:12:00,
2013-11-07 15:17:00,60.6,51.6,30.13,WSW,245,3.0,9.0,72,0.00,,,0.00,meteohub,2013-11-07 21:17:00,
2013-11-07 15:22:00,60.6,51.6,30.14,West,264,2.0,7.0,72,0.00,,,0.00,meteohub,2013-11-07 21:22:00,
2013-11-07 15:27:00,60.4,51.4,30.14,South,172,2.0,12.0,72,0.00,,,0.00,meteohub,2013-11-07 21:27:00,
2013-11-07 15:32:00,60.4,51.4,30.14,West,278,0.0,12.0,72,0.00,,,0.00,meteohub,2013-11-07 21:32:00,
2013-11-07 15:37:00,60.6,51.6,30.14,South,177,1.0,7.0,72,0.00,,,0.00,meteohub,2013-11-07 21:37:00,
2013-11-07 15:42:00,60.4,50.5,30.15,West,271,3.0,7.0,70,0.00,,,0.00,meteohub,2013-11-07 21:42:00,
2013-11-07 15:47:00,60.1,50.2,30.15,West,265,1.0,11.0,70,0.00,,,0.00,meteohub,2013-11-07 21:47:00,
2013-11-07 15:52:00,59.7,50.4,30.15,NE,43,0.0,11.0,71,0.00,,,0.00,meteohub,2013-11-07 21:52:00,
2013-11-07 15:58:00,59.7,50.7,30.14,West,260,1.0,11.0,72,0.00,,,0.00,meteohub,2013-11-07 21:58:00,
2013-11-07 16:03:00,59.4,50.4,30.15,West,259,4.0,7.0,72,0.00,,,0.00,meteohub,2013-11-07 22:03:00,
2013-11-07 16:08:00,58.5,49.8,30.15,West,261,4.0,5.0,73,0.00,,,0.00,meteohub,2013-11-07 22:08:00,
2013-11-07 16:13:00,58.1,49.8,30.15,WNW,297,5.0,8.0,74,0.00,,,0.00,meteohub,2013-11-07 22:13:00,
2013-11-07 16:18:00,57.7,49.5,30.15,WNW,291,2.0,8.0,74,0.00,,,0.00,meteohub,2013-11-07 22:18:00,
2013-11-07 16:23:00,57.4,49.5,30.15,WNW,301,0.0,8.0,75,0.00,,,0.00,meteohub,2013-11-07 22:23:00,
2013-11-07 16:28:00,57.0,49.1,30.15,South,183,1.0,6.0,75,0.00,,,0.00,meteohub,2013-11-07 22:28:00,
2013-11-07 16:33:00,56.8,49.3,30.15,WNW,302,3.0,6.0,76,0.00,,,0.00,meteohub,2013-11-07 22:33:00,
2013-11-07 16:38:00,56.5,48.9,30.16,South,188,1.0,6.0,76,0.00,,,0.00,meteohub,2013-11-07 22:38:00,
2013-11-07 16:44:00,56.3,49.1,30.17,South,190,0.0,5.0,77,0.00,,,0.00,meteohub,2013-11-07 22:44:00,
2013-11-07 16:49:00,55.9,48.9,30.17,West,278,0.0,4.0,77,0.00,,,0.00,meteohub,2013-11-07 22:49:00,
2013-11-07 16:54:00,55.8,48.7,30.17,WNW,299,0.0,3.0,77,0.00,,,0.00,meteohub,2013-11-07 22:54:00,
2013-11-07 16:59:00,55.6,48.6,30.17,West,274,0.0,4.0,77,0.00,,,0.00,meteohub,2013-11-07 22:59:00,
2013-11-07 17:04:00,55.2,47.8,30.17,North,354,1.0,4.0,76,0.00,,,0.00,meteohub,2013-11-07 23:04:00,
2013-11-07 17:09:00,55.0,47.7,30.17,West,278,1.0,8.0,76,0.00,,,0.00,meteohub,2013-11-07 23:09:00,
2013-11-07 17:14:00,54.9,47.1,30.17,WNW,290,1.0,8.0,75,0.00,,,0.00,meteohub,2013-11-07 23:14:00,
2013-11-07 17:19:00,54.9,47.5,30.17,West,278,1.0,8.0,76,0.00,,,0.00,meteohub,2013-11-07 23:19:00,
2013-11-07 17:24:00,54.7,46.9,30.17,West,260,0.0,8.0,75,0.00,,,0.00,meteohub,2013-11-07 23:24:00,
2013-11-07 17:30:00,54.3,46.6,30.17,West,266,0.0,8.0,75,0.00,,,0.00,meteohub,2013-11-07 23:30:00,
2013-11-07 17:35:00,54.1,46.4,30.17,North,354,5.0,6.0,75,0.00,,,0.00,meteohub,2013-11-07 23:35:00,
2013-11-07 17:40:00,54.1,46.8,30.18,West,273,0.0,6.0,76,0.00,,,0.00,meteohub,2013-11-07 23:40:00,
2013-11-07 17:45:00,54.0,46.2,30.18,NW,312,0.0,6.0,75,0.00,,,0.00,meteohub,2013-11-07 23:45:00,
2013-11-07 17:50:00,54.0,46.2,30.19,WNW,294,0.0,5.0,75,0.00,,,0.00,meteohub,2013-11-07 23:50:00,
2013-11-07 17:55:00,53.8,46.4,30.19,WSW,255,3.0,4.0,76,0.00,,,0.00,meteohub,2013-11-07 23:55:00,
2013-11-07 18:00:00,53.6,45.9,30.19,West,266,0.0,4.0,75,0.00,,,0.00,meteohub,2013-11-08 00:00:00,
2013-11-07 18:05:00,53.4,46.0,30.19,West,266,0.0,3.0,76,0.00,,,0.00,meteohub,2013-11-08 00:05:00,
2013-11-07 18:11:00,53.2,46.2,30.19,West,278,1.0,3.0,77,0.00,,,0.00,meteohub,2013-11-08 00:11:00,
2013-11-07 18:16:00,53.1,46.4,30.19,West,278,0.0,2.0,78,0.00,,,0.00,meteohub,2013-11-08 00:16:00,
2013-11-07 18:21:00,52.9,46.6,30.19,West,270,0.0,2.0,79,0.00,,,0.00,meteohub,2013-11-08 00:21:00,
2013-11-07 18:26:00,52.5,46.6,30.19,West,270,0.0,2.0,80,0.00,,,0.00,meteohub,2013-11-08 00:26:00,
2013-11-07 18:31:00,52.3,46.4,30.19,West,270,0.0,2.0,80,0.00,,,0.00,meteohub,2013-11-08 00:31:00,
2013-11-07 18:36:00,52.2,46.6,30.19,West,270,0.0,2.0,81,0.00,,,0.00,meteohub,2013-11-08 00:36:00,
2013-11-07 18:41:00,52.0,46.4,30.19,NW,308,0.0,2.0,81,0.00,,,0.00,meteohub,2013-11-08 00:41:00,
2013-11-07 18:46:00,51.8,46.2,30.20,WNW,291,3.0,3.0,81,0.00,,,0.00,meteohub,2013-11-08 00:46:00,
2013-11-07 18:51:00,51.8,45.9,30.20,WNW,283,0.0,3.0,80,0.00,,,0.00,meteohub,2013-11-08 00:51:00,
2013-11-07 18:57:00,51.6,45.7,30.20,WNW,287,0.0,3.0,80,0.00,,,0.00,meteohub,2013-11-08 00:57:00,
2013-11-07 19:02:00,51.4,45.9,30.20,WNW,287,0.0,3.0,81,0.00,,,0.00,meteohub,2013-11-08 01:02:00,
2013-11-07 19:07:00,51.4,45.9,30.20,North,4,0.0,4.0,81,0.00,,,0.00,meteohub,2013-11-08 01:07:00,
2013-11-07 19:12:00,51.3,45.7,30.20,NW,326,0.0,4.0,81,0.00,,,0.00,meteohub,2013-11-08 01:12:00,
2013-11-07 19:17:00,51.1,45.5,30.20,WNW,296,1.0,4.0,81,0.00,,,0.00,meteohub,2013-11-08 01:17:00,
2013-11-07 19:22:00,50.9,45.3,30.20,West,272,0.0,3.0,81,0.00,,,0.00,meteohub,2013-11-08 01:22:00,
2013-11-07 19:27:00,50.7,45.5,30.21,ENE,57,0.0,3.0,82,0.00,,,0.00,meteohub,2013-11-08 01:27:00,
2013-11-07 19:33:00,50.5,45.3,30.21,ENE,57,0.0,3.0,82,0.00,,,0.00,meteohub,2013-11-08 01:33:00,
2013-11-07 19:38:00,50.4,45.1,30.21,WNW,288,1.0,3.0,82,0.00,,,0.00,meteohub,2013-11-08 01:38:00,
2013-11-07 19:43:00,50.2,45.1,30.21,WNW,288,0.0,3.0,83,0.00,,,0.00,meteohub,2013-11-08 01:43:00,
2013-11-07 19:48:00,50.0,44.8,30.21,West,276,1.0,3.0,82,0.00,,,0.00,meteohub,2013-11-08 01:48:00,
2013-11-07 19:53:00,49.8,44.6,30.22,NNE,29,1.0,4.0,82,0.00,,,0.00,meteohub,2013-11-08 01:53:00,
2013-11-07 19:58:00,49.8,44.6,30.22,SSW,209,1.0,4.0,82,0.00,,,0.00,meteohub,2013-11-08 01:58:00,
2013-11-07 20:03:00,49.6,44.1,30.21,WSW,241,1.0,3.0,81,0.00,,,0.00,meteohub,2013-11-08 02:03:00,
2013-11-07 20:08:00,49.6,44.1,30.22,WNW,290,1.0,3.0,81,0.00,,,0.00,meteohub,2013-11-08 02:08:00,
2013-11-07 20:14:00,49.6,43.3,30.22,SW,228,0.0,5.0,79,0.00,,,0.00,meteohub,2013-11-08 02:14:00,
2013-11-07 20:19:00,49.6,43.3,30.22,SSW,209,1.0,5.0,79,0.00,,,0.00,meteohub,2013-11-08 02:19:00,
2013-11-07 20:24:00,49.6,43.3,30.22,NW,322,2.0,5.0,79,0.00,,,0.00,meteohub,2013-11-08 02:24:00,
2013-11-07 20:29:00,49.6,43.3,30.22,SW,220,1.0,3.0,79,0.00,,,0.00,meteohub,2013-11-08 02:29:00,
2013-11-07 20:34:00,49.5,42.8,30.22,SW,219,1.0,3.0,78,0.00,,,0.00,meteohub,2013-11-08 02:34:00,
2013-11-07 20:39:00,49.5,42.8,30.22,NNW,335,1.0,3.0,78,0.00,,,0.00,meteohub,2013-11-08 02:39:00,
2013-11-07 20:44:00,49.5,42.8,30.22,East,89,3.0,7.0,78,0.00,,,0.00,meteohub,2013-11-08 02:44:00,
2013-11-07 20:49:00,49.5,42.8,30.22,WNW,303,1.0,7.0,78,0.00,,,0.00,meteohub,2013-11-08 02:49:00,
2013-11-07 20:55:00,49.5,42.6,30.22,West,272,1.0,7.0,77,0.00,,,0.00,meteohub,2013-11-08 02:55:00,
2013-11-07 21:00:00,49.5,42.6,30.22,SSW,204,0.0,5.0,77,0.00,,,0.00,meteohub,2013-11-08 03:00:00,
2013-11-07 21:05:00,49.6,42.4,30.23,NW,320,1.0,6.0,76,0.00,,,0.00,meteohub,2013-11-08 03:05:00,
2013-11-07 21:10:00,49.5,42.3,30.22,NW,316,0.0,6.0,76,0.00,,,0.00,meteohub,2013-11-08 03:10:00,
2013-11-07 21:15:00,49.5,41.9,30.23,WNW,295,1.0,6.0,75,0.00,,,0.00,meteohub,2013-11-08 03:15:00,
2013-11-07 21:20:00,49.5,41.9,30.22,WSW,247,1.0,5.0,75,0.00,,,0.00,meteohub,2013-11-08 03:20:00,
2013-11-07 21:25:00,49.5,41.9,30.23,WNW,283,1.0,6.0,75,0.00,,,0.00,meteohub,2013-11-08 03:25:00,
2013-11-07 21:30:00,49.5,41.9,30.23,West,281,0.0,6.0,75,0.00,,,0.00,meteohub,2013-11-08 03:30:00,
2013-11-07 21:36:00,49.5,41.9,30.23,West,271,1.0,6.0,75,0.00,,,0.00,meteohub,2013-11-08 03:36:00,
2013-11-07 21:41:00,49.3,41.7,30.23,WNW,287,0.0,4.0,75,0.00,,,0.00,meteohub,2013-11-08 03:41:00,
2013-11-07 21:46:00,49.3,41.7,30.23,WSW,251,2.0,5.0,75,0.00,,,0.00,meteohub,2013-11-08 03:46:00,
2013-11-07 21:51:00,49.3,41.7,30.23,West,277,0.0,5.0,75,0.00,,,0.00,meteohub,2013-11-08 03:51:00,
2013-11-07 21:56:00,49.3,42.1,30.22,NE,40,4.0,5.0,76,0.00,,,0.00,meteohub,2013-11-08 03:56:00,
2013-11-07 22:01:00,49.5,41.9,30.23,North,359,4.0,13.0,75,0.00,,,0.00,meteohub,2013-11-08 04:01:00,
2013-11-07 22:06:00,49.5,41.5,30.23,WNW,286,3.0,13.0,74,0.00,,,0.00,meteohub,2013-11-08 04:06:00,
2013-11-07 22:11:00,49.5,41.9,30.23,West,276,3.0,13.0,75,0.00,,,0.00,meteohub,2013-11-08 04:11:00,
2013-11-07 22:16:00,49.3,41.7,30.23,West,262,0.0,10.0,75,0.00,,,0.00,meteohub,2013-11-08 04:16:00,
2013-11-07 22:22:00,49.3,41.7,30.23,WNW,295,0.0,8.0,75,0.00,,,0.00,meteohub,2013-11-08 04:22:00,
2013-11-07 22:27:00,48.9,41.4,30.23,WSW,250,0.0,8.0,75,0.00,,,0.00,meteohub,2013-11-08 04:27:00,
2013-11-07 22:32:00,48.9,41.4,30.23,NE,45,2.0,11.0,75,0.00,,,0.00,meteohub,2013-11-08 04:32:00,
2013-11-07 22:37:00,48.9,41.4,30.23,WSW,247,0.0,11.0,75,0.00,,,0.00,meteohub,2013-11-08 04:37:00,
2013-11-07 22:42:00,48.7,41.2,30.23,WNW,287,3.0,11.0,75,0.00,,,0.00,meteohub,2013-11-08 04:42:00,
2013-11-07 22:47:00,48.7,41.5,30.23,NNW,335,0.0,7.0,76,0.00,,,0.00,meteohub,2013-11-08 04:47:00,
2013-11-07 22:52:00,48.6,41.4,30.23,NE,36,1.0,7.0,76,0.00,,,0.00,meteohub,2013-11-08 04:52:00,
2013-11-07 22:57:00,48.4,41.2,30.23,North,350,3.0,5.0,76,0.00,,,0.00,meteohub,2013-11-08 04:57:00,
2013-11-07 23:02:00,48.2,41.4,30.23,WNW,282,0.0,5.0,77,0.00,,,0.00,meteohub,2013-11-08 05:02:00,
2013-11-07 23:03:00,48.2,41.4,30.23,North,359,0.0,5.0,77,0.00,,,0.00,meteohub,2013-11-08 05:03:00,
2013-11-07 23:04:00,48.0,41.2,30.23,NW,324,0.0,5.0,77,0.00,,,0.00,meteohub,2013-11-08 05:04:00,
2013-11-07 23:05:00,48.0,41.2,30.23,SSW,192,2.0,5.0,77,0.00,,,0.00,meteohub,2013-11-08 05:05:00,
2013-11-07 23:10:00,47.8,41.0,30.23,NE,35,0.0,5.0,77,0.00,,,0.00,meteohub,2013-11-08 05:10:00,
2013-11-07 23:11:00,47.8,41.0,30.23,NE,34,1.0,5.0,77,0.00,,,0.00,meteohub,2013-11-08 05:11:00,
2013-11-07 23:16:00,47.8,41.0,30.23,West,268,2.0,5.0,77,0.00,,,0.00,meteohub,2013-11-08 05:16:00,
2013-11-07 23:21:00,47.7,41.2,30.23,West,260,1.0,4.0,78,0.00,,,0.00,meteohub,2013-11-08 05:21:00,
2013-11-07 23:26:00,47.5,40.6,30.23,North,354,2.0,5.0,77,0.00,,,0.00,meteohub,2013-11-08 05:26:00,
2013-11-07 23:31:00,47.3,40.8,30.23,SW,232,1.0,5.0,78,0.00,,,0.00,meteohub,2013-11-08 05:31:00,
2013-11-07 23:37:00,47.1,40.6,30.23,WSW,237,1.0,5.0,78,0.00,,,0.00,meteohub,2013-11-08 05:37:00,
2013-11-07 23:42:00,46.9,40.8,30.23,NNE,14,0.0,3.0,79,0.00,,,0.00,meteohub,2013-11-08 05:42:00,
2013-11-07 23:47:00,46.8,40.3,30.23,East,91,0.0,4.0,78,0.00,,,0.00,meteohub,2013-11-08 05:47:00,
2013-11-07 23:52:00,46.8,40.6,30.23,WSW,251,0.0,4.0,79,0.00,,,0.00,meteohub,2013-11-08 05:52:00,
2013-11-07 23:57:00,46.6,40.5,30.23,NNE,17,0.0,3.0,79,0.00,,,0.00,meteohub,2013-11-08 05:57:00,